{"data":{"norad_id":55053,"intl_designator":"2023-001AW","name":"EOSSAT-1","alt_names":[],"object_type":"PAYLOAD","status":"ACTIVE","operator":null,"country":"SAFR","launch_date":"2023-01-03","launch_site_code":"AFETR","launch_vehicle":null,"mission":null,"orbit_class":"UNKNOWN","rcs_meters":null,"size_class":null,"mass_kg":null,"dimensions":null,"purposes":[],"wikipedia_slug":null,"has_3d_model":false,"image_url":null,"decayed_at":null,"tle_current":{"epoch":"2026-09-21T16:33:05.936256Z","epoch_age_seconds":62122,"freshness":"FRESH","line1":"1 55053U 23001AW  26264.68965204  .00003279  00000+0  10073-3 0  9998","line2":"2 55053  97.3140 324.4535 0010237 125.8566 234.3630 15.34379203206710","mean_motion":15.34379203,"eccentricity":0.0010237,"inclination_deg":97.314,"raan_deg":324.4535,"arg_perigee_deg":125.8566,"mean_anomaly_deg":234.363,"bstar":0.00010073,"rev_number":20671,"period_min":93.849030095333,"perigee_km":455.7620225394,"apogee_km":469.7680854047,"semimajor_km":6840.9020539721,"source":"CELESTRAK","updated_at":"2026-09-22T09:00:25.268153Z"}}}